This demonstration page uses our WeatherBlox Daily Observations layout. Learn more.

Left ArrowRight Arrow

38.20091, -84.87328

Hourly Observations for June 16, 2021

Temp ( °F °C ) Dew Point ( °F °C ) Humidity (%) Winds ( mph kmh ) Pressure ( in mb ) Visibility ( mi km ) Precip ( " mm )
12:53 am 00:53 Clear 62 16.7 56 13.3 80 80 N 3 6 29.99 1016 10 16 0.00 0.00
1:53 am 01:53 Clear 61 16.1 56 13.3 84 84 NNW 3 6 29.99 1016 10 16 0.00 0.00
2:53 am 02:53 Clear 60 15.6 55 12.8 84 84 Calm 29.99 1016 10 16 0.00 0.00
3:53 am 03:53 Clear 59 15 54 12.2 83 83 N 3 6 30.00 1016 10 16 0.00 0.00
4:53 am 04:53 Clear 59 15 54 12.2 83 83 Calm 30.00 1016 10 16 0.00 0.00
5:53 am 05:53 Clear 58 14.4 54 12.2 87 87 Calm 30.01 1016 10 16 0.00 0.00
6:53 am 06:53 Sunny 60 15.6 55 12.8 84 84 Calm 30.03 1017 10 16 0.00 0.00
7:53 am 07:53 Mostly Cloudy 64 17.8 56 13.3 75 75 ENE 6 9 30.04 1017 10 16 0.00 0.00
8:53 am 08:53 Mostly Sunny 68 20 54 12.2 61 61 E 10 17 30.06 1018 10 16 0.00 0.00
9:53 am 09:53 Sunny 72 22.2 52 11.1 50 50 E 9 15 30.08 1019 10 16 0.00 0.00
10:53 am 10:53 Sunny 74 23.3 50 10 43 43 ESE 9 15 30.07 1018 10 16 0.00 0.00
11:53 am 11:53 Sunny 76 24.4 51 10.6 42 42 VRB 6 9 30.07 1018 10 16 0.00 0.00
12:53 pm 12:53 Sunny 78 25.6 53 11.7 42 42 NE 8 13 30.07 1018 10 16 0.00 0.00
1:53 pm 13:53 Sunny 80 26.7 54 12.2 41 41 VRB 5 7 30.04 1017 10 16 0.00 0.00
2:53 pm 14:53 Sunny 80 26.7 52 11.1 38 38 Calm 30.04 1017 10 16 0.00 0.00
3:53 pm 15:53 Mostly Cloudy 82 27.8 53 11.7 37 37 NE 6 9 30.04 1017 10 16 0.00 0.00
4:53 pm 16:53 Mostly Cloudy 79 26.1 52 11.1 39 39 ENE 5 7 30.03 1017 10 16 0.00 0.00
5:53 pm 17:53 Mostly Sunny 81 27.2 52 11.1 37 37 NNE 5 7 30.01 1016 10 16 0.00 0.00
6:53 pm 18:53 Sunny 81 27.2 50 10 34 34 N 3 6 30.00 1016 10 16 0.00 0.00
7:53 pm 19:53 Sunny 80 26.7 49 9.4 34 34 N 3 6 30.00 1016 10 16 0.00 0.00
8:53 pm 20:53 Sunny 72 22.2 56 13.3 57 57 Calm 30.02 1017 10 16 0.00 0.00
9:53 pm 21:53 Clear 67 19.4 56 13.3 68 68 Calm 30.02 1017 10 16 0.00 0.00
10:53 pm 22:53 Clear 66 18.9 56 13.3 70 70 Calm 30.02 1017 10 16 0.00 0.00
11:53 pm 23:53 Clear 62 16.7 56 13.3 80 80 Calm 30.02 1017 10 16 0.00 0.00

Powered by AerisWeather